UAL2369 KORD-KSMF

Flight info

Callsign UAL2369
Flight time 3h 45m
Altitude 30000
Route MYKIE MONNY IANNA FOD ONL J94 BAM ANAHO SLMMR5
Aircraft B739/M-SDE2E3FGHIRWXY/LB1

Departure

Time 2026-05-04 12:58
Airport Chicago O'Hare International Airport (KORD)

Arrival

Time 2026-05-04 16:43
Airport Sacramento International Airport (KSMF)
Time Latitude Longitude Altitude Speed Heading
2026-05-04 12:39 41.98095 -87.90915 668 ft 0 kts 273°
2026-05-04 12:50 41.98095 -87.90892 668 ft 4 kts 282°
2026-05-04 12:50 41.98088 -87.90862 668 ft 4 kts 316°
2026-05-04 12:51 41.98066 -87.90851 667 ft 4 kts
2026-05-04 12:51 41.98041 -87.90856 665 ft 2 kts
2026-05-04 12:51 41.98018 -87.90861 668 ft 3 kts
2026-05-04 12:51 41.98016 -87.90862 668 ft 1 kts
2026-05-04 12:52 41.98015 -87.90862 668 ft 0 kts
2026-05-04 12:53 41.98027 -87.90859 666 ft 5 kts
2026-05-04 12:53 41.98094 -87.90848 666 ft 14 kts 359°
2026-05-04 12:53 41.98201 -87.90861 665 ft 16 kts 354°
2026-05-04 12:53 41.98273 -87.90778 665 ft 15 kts 72°
2026-05-04 12:54 41.98287 -87.90623 667 ft 20 kts 89°
2026-05-04 12:54 41.98288 -87.90404 667 ft 26 kts 90°
2026-05-04 12:54 41.98288 -87.90166 668 ft 25 kts 90°
2026-05-04 12:54 41.98288 -87.89942 669 ft 23 kts 90°
2026-05-04 12:55 41.98288 -87.89734 669 ft 20 kts 90°
2026-05-04 12:55 41.98288 -87.89580 669 ft 16 kts 90°
2026-05-04 12:55 41.98288 -87.89436 669 ft 15 kts 90°
2026-05-04 12:55 41.98288 -87.89298 668 ft 16 kts 90°
2026-05-04 12:56 41.98288 -87.89137 667 ft 17 kts 90°
2026-05-04 12:56 41.98288 -87.88980 667 ft 14 kts 87°
2026-05-04 12:56 41.98355 -87.88918 666 ft 13 kts 354°
2026-05-04 12:56 41.98389 -87.88990 666 ft 0 kts 271°
2026-05-04 12:57 41.98389 -87.89097 667 ft 40 kts 270°
2026-05-04 12:57 41.98389 -87.89797 670 ft 108 kts 270°
2026-05-04 12:57 41.98386 -87.91069 673 ft 161 kts 268°
2026-05-04 12:58 41.98386 -87.92650 1147 ft 171 kts 267°
2026-05-04 12:58 41.98432 -87.94274 1879 ft 173 kts 272°
2026-05-04 12:58 41.98636 -87.95891 2478 ft 182 kts 279°
2026-05-04 12:58 41.99002 -87.97628 2666 ft 204 kts 282°
2026-05-04 12:59 41.99438 -87.99549 2853 ft 226 kts 283°
2026-05-04 12:59 41.99915 -88.01656 3071 ft 244 kts 283°
2026-05-04 12:59 42.00404 -88.03842 3597 ft 251 kts 283°
2026-05-04 12:59 42.00900 -88.06087 4402 ft 249 kts 283°
2026-05-04 13:00 42.01388 -88.08320 5217 ft 248 kts 282°
2026-05-04 13:00 42.01874 -88.10578 5967 ft 250 kts 282°
2026-05-04 13:00 42.02349 -88.12806 6625 ft 253 kts 282°
2026-05-04 13:00 42.02832 -88.15091 7300 ft 255 kts 282°
2026-05-04 13:01 42.03317 -88.17397 7970 ft 257 kts 282°
2026-05-04 13:01 42.03805 -88.19726 8633 ft 260 kts 283°
2026-05-04 13:01 42.04296 -88.22080 9296 ft 263 kts 283°
2026-05-04 13:01 42.04791 -88.24457 9938 ft 265 kts 283°
2026-05-04 13:02 42.05293 -88.26877 10351 ft 276 kts 283°
2026-05-04 13:02 42.05827 -88.29462 10503 ft 296 kts 283°
2026-05-04 13:02 42.06396 -88.32221 10655 ft 315 kts 284°
2026-05-04 13:02 42.06999 -88.35146 10797 ft 333 kts 284°
2026-05-04 13:03 42.07635 -88.38229 10939 ft 350 kts 284°
2026-05-04 13:03 42.08295 -88.41433 11268 ft 359 kts 284°
2026-05-04 13:03 42.08966 -88.44691 11807 ft 362 kts 284°
2026-05-04 13:03 42.09639 -88.47962 12427 ft 363 kts 284°
2026-05-04 13:04 42.10273 -88.51252 13042 ft 364 kts 281°
2026-05-04 13:04 42.10727 -88.54613 13588 ft 366 kts 279°
2026-05-04 13:04 42.11102 -88.58018 14054 ft 369 kts 278°
2026-05-04 13:04 42.11455 -88.61449 14515 ft 372 kts 278°
2026-05-04 13:05 42.11814 -88.64924 14979 ft 375 kts 278°
2026-05-04 13:05 42.12180 -88.68416 15444 ft 378 kts 278°
2026-05-04 13:05 42.12557 -88.71935 15887 ft 381 kts 278°
2026-05-04 13:05 42.12943 -88.75482 16329 ft 384 kts 278°
2026-05-04 13:06 42.13335 -88.79053 16760 ft 387 kts 278°
2026-05-04 13:06 42.13733 -88.82652 17189 ft 390 kts 278°
2026-05-04 13:06 42.14132 -88.86268 17603 ft 393 kts 278°
2026-05-04 13:06 42.14536 -88.89921 18005 ft 396 kts 278°
2026-05-04 13:07 42.14943 -88.93607 18359 ft 398 kts 278°
2026-05-04 13:07 42.15350 -88.97310 18744 ft 400 kts 278°
2026-05-04 13:07 42.15759 -89.01030 19127 ft 402 kts 278°
2026-05-04 13:07 42.16162 -89.04721 19501 ft 405 kts 278°
2026-05-04 13:08 42.16573 -89.08483 19879 ft 407 kts 278°
2026-05-04 13:08 42.16984 -89.12267 20259 ft 409 kts 278°
2026-05-04 13:08 42.17396 -89.16070 20625 ft 411 kts 278°
2026-05-04 13:08 42.17809 -89.19895 20981 ft 413 kts 278°
2026-05-04 13:09 42.18223 -89.23741 21326 ft 416 kts 278°
2026-05-04 13:09 42.18638 -89.27609 21672 ft 418 kts 278°
2026-05-04 13:09 42.19054 -89.31498 22033 ft 420 kts 278°
2026-05-04 13:09 42.19471 -89.35407 22365 ft 422 kts 278°
2026-05-04 13:10 42.19888 -89.39334 22763 ft 423 kts 278°
2026-05-04 13:10 42.20304 -89.43260 23212 ft 423 kts 278°
2026-05-04 13:10 42.20719 -89.47196 23501 ft 425 kts 278°
2026-05-04 13:10 42.21136 -89.51159 23754 ft 428 kts 278°
2026-05-04 13:11 42.21554 -89.55143 24033 ft 430 kts 278°
2026-05-04 13:11 42.21971 -89.59142 24321 ft 431 kts 278°
2026-05-04 13:11 42.22389 -89.63156 24614 ft 433 kts 278°
2026-05-04 13:11 42.22807 -89.67186 24890 ft 435 kts 278°
2026-05-04 13:12 42.23226 -89.71233 25159 ft 436 kts 278°
2026-05-04 13:12 42.23644 -89.75298 25492 ft 436 kts 278°
2026-05-04 13:12 42.23919 -89.77974 25746 ft 435 kts 278°
2026-05-04 13:12 42.24332 -89.82011 26167 ft 433 kts 278°
2026-05-04 13:13 42.24742 -89.86030 26588 ft 431 kts 278°
2026-05-04 13:13 42.25149 -89.90036 26978 ft 431 kts 278°
2026-05-04 13:13 42.25555 -89.94039 27344 ft 430 kts 278°
2026-05-04 13:13 42.25958 -89.98036 27722 ft 429 kts 278°
2026-05-04 13:14 42.26360 -90.02027 28098 ft 429 kts 278°
2026-05-04 13:14 42.26759 -90.06006 28528 ft 427 kts 278°
2026-05-04 13:14 42.27154 -90.09969 28972 ft 425 kts 278°
2026-05-04 13:14 42.27546 -90.13910 29449 ft 422 kts 278°
2026-05-04 13:15 42.27935 -90.17835 29703 ft 423 kts 278°
2026-05-04 13:15 42.28714 -90.25720 29686 ft 422 kts 278°
2026-05-04 13:16 42.29480 -90.33548 29689 ft 420 kts 278°
2026-05-04 13:16 42.30239 -90.41358 29686 ft 418 kts 278°
2026-05-04 13:17 42.30990 -90.49138 29692 ft 417 kts 278°
2026-05-04 13:17 42.31735 -90.56916 29694 ft 418 kts 278°
2026-05-04 13:18 42.32477 -90.64711 29691 ft 419 kts 278°
2026-05-04 13:18 42.33215 -90.72528 29697 ft 420 kts 278°
2026-05-04 13:19 42.33950 -90.80373 29689 ft 421 kts 278°
2026-05-04 13:19 42.34682 -90.88237 29694 ft 422 kts 278°
2026-05-04 13:20 42.35404 -90.96065 29682 ft 423 kts 278°
2026-05-04 13:20 42.36127 -91.03958 29678 ft 423 kts 278°
2026-05-04 13:21 42.36845 -91.11853 29680 ft 423 kts 278°
2026-05-04 13:21 42.37556 -91.19742 29678 ft 422 kts 278°
2026-05-04 13:22 42.38261 -91.27620 29676 ft 422 kts 278°
2026-05-04 13:22 42.38960 -91.35489 29679 ft 421 kts 278°
2026-05-04 13:23 42.39652 -91.43347 29667 ft 420 kts 277°
2026-05-04 13:23 42.40337 -91.51195 29668 ft 420 kts 277°
2026-05-04 13:24 42.41016 -91.59029 29663 ft 419 kts 277°
2026-05-04 13:24 42.41684 -91.66791 29662 ft 418 kts 277°
2026-05-04 13:25 42.42678 -91.78478 29660 ft 417 kts 277°
2026-05-04 13:25 42.43335 -91.86275 29659 ft 416 kts 277°
2026-05-04 13:26 42.43985 -91.94058 29691 ft 417 kts 277°
2026-05-04 13:26 42.44631 -92.01854 29706 ft 417 kts 277°
2026-05-04 13:27 42.45273 -92.09669 29701 ft 418 kts 277°
2026-05-04 13:27 42.45912 -92.17507 29692 ft 419 kts 277°
2026-05-04 13:28 42.46547 -92.25365 29667 ft 420 kts 277°
2026-05-04 13:28 42.47177 -92.33240 29667 ft 421 kts 277°
2026-05-04 13:29 42.47802 -92.41120 29665 ft 421 kts 277°
2026-05-04 13:29 42.48422 -92.48999 29663 ft 420 kts 277°
2026-05-04 13:30 42.49035 -92.56865 29663 ft 420 kts 277°
2026-05-04 13:30 42.49644 -92.64738 29658 ft 419 kts 277°
2026-05-04 13:31 42.50245 -92.72592 29649 ft 419 kts 276°
2026-05-04 13:31 42.50840 -92.80435 29648 ft 418 kts 276°
2026-05-04 13:32 42.51430 -92.88284 29648 ft 418 kts 276°
2026-05-04 13:32 42.52010 -92.96071 29662 ft 418 kts 276°
2026-05-04 13:33 42.52588 -93.03911 29670 ft 418 kts 276°
2026-05-04 13:33 42.53161 -93.11755 29675 ft 418 kts 276°
2026-05-04 13:34 42.53729 -93.19591 29685 ft 418 kts 276°
2026-05-04 13:34 42.54292 -93.27443 29683 ft 418 kts 276°
2026-05-04 13:35 42.55127 -93.39230 29680 ft 419 kts 276°
2026-05-04 13:36 42.55677 -93.47094 29670 ft 419 kts 276°
2026-05-04 13:36 42.56221 -93.54960 29683 ft 419 kts 276°
2026-05-04 13:37 42.56761 -93.62823 29655 ft 418 kts 276°
2026-05-04 13:37 42.57293 -93.70667 29648 ft 417 kts 276°
2026-05-04 13:38 42.57818 -93.78487 29658 ft 416 kts 276°
2026-05-04 13:38 42.58337 -93.86282 29661 ft 414 kts 276°
2026-05-04 13:39 42.58848 -93.94050 29654 ft 413 kts 276°
2026-05-04 13:39 42.59352 -94.01795 29683 ft 411 kts 276°
2026-05-04 13:40 42.59847 -94.09474 29684 ft 411 kts 276°
2026-05-04 13:40 42.60342 -94.17241 29685 ft 411 kts 276°
2026-05-04 13:41 42.60828 -94.24913 29688 ft 411 kts 276°
2026-05-04 13:41 42.61165 -94.32656 29683 ft 411 kts 271°
2026-05-04 13:42 42.60969 -94.44316 29688 ft 412 kts 270°
2026-05-04 13:42 42.60815 -94.52100 29678 ft 413 kts 270°
2026-05-04 13:43 42.60681 -94.59892 29666 ft 413 kts 270°
2026-05-04 13:43 42.60554 -94.67695 29672 ft 413 kts 270°
2026-05-04 13:44 42.60425 -94.75486 29669 ft 413 kts 270°
2026-05-04 13:44 42.60291 -94.83291 29673 ft 414 kts 270°
2026-05-04 13:45 42.60152 -94.91101 29669 ft 414 kts 270°
2026-05-04 13:45 42.60007 -94.98910 29665 ft 414 kts 270°
2026-05-04 13:46 42.59856 -95.06707 29676 ft 414 kts 270°
2026-05-04 13:46 42.59701 -95.14565 29863 ft 419 kts 270°
2026-05-04 13:47 42.59620 -95.18517 30181 ft 418 kts 270°
2026-05-04 13:47 42.59537 -95.22452 30551 ft 416 kts 270°
2026-05-04 13:47 42.59454 -95.26366 30909 ft 414 kts 270°
2026-05-04 13:47 42.59370 -95.30270 31197 ft 414 kts 270°
2026-05-04 13:48 42.59286 -95.34124 31432 ft 414 kts 270°
2026-05-04 13:48 42.59200 -95.38026 31673 ft 413 kts 270°
2026-05-04 13:48 42.59023 -95.45862 31660 ft 416 kts 270°
2026-05-04 13:49 42.58840 -95.53670 31664 ft 413 kts 270°
2026-05-04 13:49 42.58653 -95.61451 31666 ft 411 kts 269°
2026-05-04 13:50 42.58462 -95.69199 31663 ft 410 kts 269°
2026-05-04 13:50 42.58266 -95.76926 31650 ft 410 kts 269°
2026-05-04 13:51 42.58065 -95.84657 31661 ft 411 kts 269°
2026-05-04 13:51 42.57857 -95.92420 31662 ft 412 kts 269°
2026-05-04 13:52 42.57535 -96.04104 31663 ft 414 kts 269°
2026-05-04 13:53 42.57313 -96.11926 31652 ft 415 kts 269°
2026-05-04 13:53 42.57086 -96.19714 31663 ft 416 kts 269°
2026-05-04 13:54 42.56731 -96.31558 31675 ft 418 kts 269°
2026-05-04 13:55 42.56367 -96.43311 31672 ft 417 kts 269°
2026-05-04 13:55 42.55990 -96.55093 31668 ft 417 kts 269°
2026-05-04 13:56 42.55732 -96.62937 31677 ft 416 kts 269°
2026-05-04 13:57 42.55336 -96.74686 31682 ft 415 kts 269°
2026-05-04 13:58 42.54789 -96.90333 31683 ft 415 kts 268°
2026-05-04 13:58 42.54366 -97.02061 31687 ft 415 kts 268°
2026-05-04 13:59 42.54077 -97.09884 31686 ft 416 kts 268°
2026-05-04 14:00 42.53683 -97.20299 31689 ft 416 kts 268°
2026-05-04 14:00 42.53228 -97.32053 31699 ft 416 kts 268°
2026-05-04 14:01 42.52918 -97.39886 31700 ft 416 kts 268°
2026-05-04 14:02 42.52442 -97.51640 31699 ft 416 kts 268°
2026-05-04 14:02 42.52119 -97.59477 31695 ft 416 kts 268°
2026-05-04 14:03 42.51790 -97.67311 31705 ft 416 kts 268°
2026-05-04 14:03 42.51455 -97.75144 31706 ft 416 kts 268°
2026-05-04 14:04 42.50944 -97.86885 31712 ft 416 kts 268°
2026-05-04 14:04 42.50597 -97.94718 31710 ft 416 kts 268°
2026-05-04 14:05 42.50065 -98.06459 31714 ft 416 kts 268°
2026-05-04 14:06 42.49707 -98.14231 31708 ft 416 kts 267°
2026-05-04 14:06 42.49341 -98.22051 31710 ft 416 kts 267°
2026-05-04 14:07 42.48970 -98.29870 31711 ft 416 kts 267°
2026-05-04 14:07 42.48594 -98.37687 31702 ft 416 kts 267°
2026-05-04 14:08 42.48213 -98.45496 31749 ft 415 kts 267°
2026-05-04 14:08 42.47826 -98.53302 31753 ft 415 kts 267°
2026-05-04 14:09 42.47239 -98.65003 31758 ft 415 kts 267°
2026-05-04 14:10 42.46348 -98.76667 31752 ft 415 kts 264°
2026-05-04 14:10 42.45536 -98.84403 31755 ft 415 kts 263°
2026-05-04 14:11 42.44726 -98.92156 31748 ft 415 kts 264°
2026-05-04 14:11 42.43538 -99.03780 31737 ft 416 kts 264°
2026-05-04 14:12 42.42748 -99.11532 31712 ft 416 kts 264°
2026-05-04 14:13 42.41559 -99.23105 31723 ft 416 kts 264°
2026-05-04 14:13 42.40756 -99.30859 31726 ft 416 kts 264°
2026-05-04 14:14 42.39946 -99.38620 31726 ft 417 kts 264°
2026-05-04 14:14 42.38721 -99.50260 31720 ft 417 kts 263°
2026-05-04 14:15 42.37067 -99.65799 31735 ft 418 kts 263°
2026-05-04 14:16 42.35811 -99.77463 31748 ft 418 kts 263°
2026-05-04 14:17 42.34542 -99.89132 31751 ft 418 kts 263°
2026-05-04 14:18 42.33262 -100.00790 31764 ft 418 kts 263°
2026-05-04 14:19 42.31534 -100.16353 31756 ft 419 kts 263°
2026-05-04 14:19 42.30662 -100.24137 31737 ft 419 kts 263°
2026-05-04 14:20 42.29784 -100.31918 31737 ft 419 kts 263°
2026-05-04 14:20 42.28901 -100.39697 31745 ft 419 kts 263°
2026-05-04 14:21 42.27567 -100.51356 31740 ft 419 kts 263°
2026-05-04 14:21 42.26671 -100.59135 31735 ft 419 kts 263°
2026-05-04 14:22 42.25769 -100.66911 31743 ft 419 kts 263°
2026-05-04 14:22 42.24867 -100.74636 31744 ft 419 kts 263°
2026-05-04 14:23 42.23496 -100.86298 31741 ft 419 kts 263°
2026-05-04 14:24 42.22570 -100.94115 31745 ft 420 kts 263°
2026-05-04 14:24 42.21650 -101.01835 31750 ft 419 kts 263°
2026-05-04 14:25 42.20719 -101.09604 31743 ft 420 kts 263°
2026-05-04 14:25 42.19312 -101.21255 31742 ft 420 kts 262°
2026-05-04 14:26 42.18367 -101.29021 31753 ft 420 kts 262°
2026-05-04 14:26 42.17417 -101.36784 31754 ft 419 kts 262°
2026-05-04 14:27 42.16463 -101.44535 31750 ft 420 kts 262°
2026-05-04 14:27 42.15502 -101.52295 31750 ft 420 kts 262°
2026-05-04 14:28 42.14536 -101.60053 31752 ft 420 kts 262°
2026-05-04 14:28 42.13565 -101.67811 31741 ft 420 kts 262°
2026-05-04 14:29 42.11607 -101.83317 31748 ft 419 kts 262°
2026-05-04 14:30 42.10621 -101.91058 31754 ft 419 kts 262°
2026-05-04 14:31 42.09134 -102.02653 31757 ft 419 kts 262°
2026-05-04 14:32 42.07143 -102.18033 31753 ft 418 kts 262°
2026-05-04 14:32 42.06138 -102.25733 31754 ft 418 kts 262°
2026-05-04 14:33 42.05128 -102.33425 31757 ft 417 kts 262°
2026-05-04 14:33 42.04115 -102.41101 31759 ft 417 kts 262°
2026-05-04 14:34 42.03097 -102.48778 31790 ft 417 kts 262°
2026-05-04 14:34 42.02074 -102.56447 31810 ft 417 kts 262°
2026-05-04 14:35 42.01045 -102.64117 31820 ft 417 kts 262°
2026-05-04 14:35 42.00011 -102.71788 31835 ft 417 kts 262°
2026-05-04 14:36 41.98971 -102.79463 31831 ft 417 kts 262°
2026-05-04 14:36 41.97928 -102.87127 31833 ft 417 kts 262°
2026-05-04 14:37 41.96876 -102.94806 31818 ft 417 kts 262°
2026-05-04 14:37 41.95822 -103.02468 31803 ft 417 kts 262°
2026-05-04 14:38 41.94763 -103.10121 31786 ft 416 kts 262°
2026-05-04 14:38 41.93700 -103.17763 31764 ft 416 kts 261°
2026-05-04 14:39 41.92643 -103.25332 31784 ft 415 kts 261°
2026-05-04 14:39 41.91575 -103.32940 31811 ft 414 kts 261°
2026-05-04 14:40 41.89970 -103.44304 31844 ft 413 kts 261°
2026-05-04 14:40 41.89200 -103.51895 31850 ft 410 kts 269°
2026-05-04 14:41 41.88986 -103.59534 31850 ft 409 kts 269°
2026-05-04 14:42 41.88559 -103.74811 31842 ft 410 kts 269°
2026-05-04 14:42 41.88310 -103.82459 31827 ft 410 kts 269°
2026-05-04 14:43 41.88049 -103.90116 31795 ft 411 kts 268°
2026-05-04 14:43 41.87785 -103.97736 31783 ft 412 kts 268°
2026-05-04 14:44 41.87510 -104.05472 31761 ft 413 kts 268°
2026-05-04 14:44 41.87234 -104.13132 31823 ft 414 kts 268°
2026-05-04 14:45 41.86950 -104.20860 31804 ft 415 kts 268°
2026-05-04 14:45 41.86661 -104.28594 31803 ft 415 kts 268°
2026-05-04 14:46 41.86366 -104.36335 31796 ft 416 kts 268°
2026-05-04 14:46 41.86066 -104.44073 31779 ft 416 kts 268°
2026-05-04 14:47 41.85810 -104.50577 31767 ft 416 kts 268°
2026-05-04 14:47 41.85500 -104.58321 31769 ft 416 kts 268°
2026-05-04 14:48 41.85187 -104.66026 31790 ft 416 kts 268°
2026-05-04 14:48 41.84865 -104.73821 31800 ft 416 kts 268°
2026-05-04 14:49 41.84542 -104.81499 31813 ft 415 kts 268°
2026-05-04 14:49 41.84210 -104.89285 31814 ft 415 kts 268°
2026-05-04 14:50 41.83877 -104.96960 31805 ft 415 kts 268°
2026-05-04 14:50 41.83537 -105.04685 31758 ft 415 kts 268°
2026-05-04 14:51 41.83191 -105.12418 31770 ft 416 kts 268°
2026-05-04 14:51 41.82839 -105.20172 31770 ft 417 kts 268°
2026-05-04 14:52 41.82481 -105.27942 31765 ft 418 kts 267°
2026-05-04 14:52 41.82117 -105.35724 31769 ft 418 kts 267°
2026-05-04 14:53 41.81747 -105.43519 31773 ft 419 kts 267°
2026-05-04 14:53 41.81372 -105.51319 31789 ft 420 kts 267°
2026-05-04 14:54 41.80990 -105.59141 31785 ft 421 kts 267°
2026-05-04 14:54 41.80603 -105.66969 31781 ft 421 kts 267°
2026-05-04 14:55 41.80210 -105.74797 31790 ft 421 kts 267°
2026-05-04 14:55 41.79812 -105.82628 31788 ft 421 kts 267°
2026-05-04 14:56 41.79408 -105.90466 31792 ft 422 kts 266°
2026-05-04 14:56 41.79001 -105.98255 31784 ft 422 kts 266°
2026-05-04 14:57 41.78587 -106.06090 31789 ft 422 kts 266°
2026-05-04 14:57 41.78166 -106.13948 31789 ft 422 kts 266°
2026-05-04 14:58 41.77740 -106.21794 31786 ft 423 kts 266°
2026-05-04 14:58 41.77307 -106.29663 31784 ft 423 kts 266°
2026-05-04 14:59 41.76869 -106.37528 31779 ft 423 kts 266°
2026-05-04 15:00 41.76202 -106.49332 31799 ft 424 kts 266°
2026-05-04 15:00 41.75750 -106.57213 31801 ft 425 kts 266°
2026-05-04 15:01 41.75061 -106.69049 31807 ft 425 kts 266°
2026-05-04 15:01 41.74597 -106.76892 31804 ft 425 kts 266°
2026-05-04 15:02 41.74124 -106.84791 31804 ft 426 kts 266°
2026-05-04 15:02 41.73644 -106.92735 31904 ft 426 kts 266°
2026-05-04 15:03 41.73163 -107.00595 31930 ft 426 kts 266°
2026-05-04 15:03 41.72675 -107.08485 31953 ft 425 kts 266°
2026-05-04 15:04 41.72181 -107.16372 31994 ft 425 kts 266°
2026-05-04 15:04 41.71682 -107.24263 31981 ft 426 kts 266°
2026-05-04 15:05 41.71177 -107.32156 31957 ft 426 kts 266°
2026-05-04 15:05 41.70666 -107.40051 31911 ft 426 kts 265°
2026-05-04 15:06 41.70150 -107.47947 31898 ft 426 kts 265°
2026-05-04 15:07 41.69365 -107.59806 31855 ft 427 kts 265°
2026-05-04 15:07 41.68834 -107.67724 31832 ft 427 kts 265°
2026-05-04 15:08 41.68297 -107.75642 31824 ft 428 kts 265°
2026-05-04 15:08 41.67753 -107.83581 31833 ft 429 kts 265°
2026-05-04 15:09 41.67203 -107.91532 31825 ft 430 kts 265°
2026-05-04 15:09 41.66646 -107.99495 31830 ft 430 kts 265°
2026-05-04 15:10 41.65800 -108.11454 31819 ft 431 kts 265°
2026-05-04 15:11 41.64941 -108.23412 31810 ft 430 kts 265°
2026-05-04 15:11 41.64366 -108.31322 31816 ft 430 kts 265°
2026-05-04 15:12 41.63782 -108.39280 31815 ft 430 kts 265°
2026-05-04 15:12 41.63193 -108.47232 31807 ft 430 kts 265°
2026-05-04 15:13 41.62598 -108.55176 31815 ft 429 kts 265°
2026-05-04 15:13 41.61999 -108.63114 31820 ft 429 kts 265°
2026-05-04 15:14 41.61394 -108.71053 31822 ft 430 kts 265°
2026-05-04 15:14 41.60783 -108.78995 31914 ft 430 kts 264°
2026-05-04 15:15 41.60167 -108.86933 31966 ft 429 kts 264°
2026-05-04 15:15 41.59547 -108.94874 31999 ft 430 kts 264°
2026-05-04 15:16 41.58783 -109.06800 32004 ft 430 kts 268°
2026-05-04 15:17 41.58510 -109.18779 31998 ft 430 kts 268°
2026-05-04 15:17 41.58217 -109.30723 31936 ft 432 kts 268°
2026-05-04 15:18 41.57990 -109.38735 31911 ft 433 kts 268°
2026-05-04 15:19 41.57629 -109.50816 31846 ft 435 kts 268°
2026-05-04 15:19 41.57253 -109.62959 31847 ft 437 kts 268°
2026-05-04 15:20 41.56995 -109.71088 31842 ft 439 kts 268°
2026-05-04 15:20 41.56731 -109.79237 31851 ft 440 kts 268°
2026-05-04 15:21 41.56460 -109.87399 31845 ft 440 kts 268°
2026-05-04 15:22 41.56042 -109.99652 31834 ft 441 kts 268°
2026-05-04 15:22 41.55612 -110.11908 31835 ft 440 kts 267°
2026-05-04 15:23 41.55318 -110.20067 31834 ft 440 kts 267°
2026-05-04 15:23 41.55017 -110.28243 31855 ft 441 kts 267°
2026-05-04 15:24 41.54399 -110.44594 31883 ft 441 kts 267°
2026-05-04 15:25 41.54081 -110.52775 31892 ft 441 kts 267°
2026-05-04 15:26 41.53593 -110.65043 31844 ft 441 kts 267°
2026-05-04 15:26 41.53093 -110.77261 31848 ft 442 kts 267°
2026-05-04 15:27 41.52577 -110.89599 31847 ft 445 kts 267°
2026-05-04 15:28 41.52044 -111.02020 31854 ft 448 kts 267°
2026-05-04 15:29 41.51494 -111.14513 31852 ft 450 kts 267°
2026-05-04 15:30 41.50156 -111.43648 31839 ft 447 kts 267°
2026-05-04 15:31 41.49566 -111.56028 31837 ft 445 kts 266°
2026-05-04 15:32 41.48557 -111.76560 31866 ft 443 kts 266°
2026-05-04 15:34 41.47584 -111.95696 31845 ft 445 kts 266°
2026-05-04 15:34 41.46938 -112.08065 31832 ft 447 kts 266°
2026-05-04 15:35 41.46273 -112.20502 31809 ft 450 kts 266°
2026-05-04 15:36 41.45594 -112.33000 31788 ft 452 kts 266°
2026-05-04 15:36 41.45132 -112.41371 31789 ft 453 kts 266°
2026-05-04 15:37 41.44662 -112.49759 31778 ft 454 kts 266°
2026-05-04 15:37 41.44187 -112.58106 31786 ft 455 kts 266°
2026-05-04 15:38 41.43704 -112.66512 31780 ft 455 kts 266°
2026-05-04 15:38 41.43214 -112.74916 31782 ft 455 kts 266°
2026-05-04 15:39 41.42719 -112.83306 31776 ft 455 kts 266°
2026-05-04 15:40 41.41964 -112.95908 31786 ft 454 kts 266°
2026-05-04 15:40 41.41455 -113.04293 31789 ft 455 kts 266°
2026-05-04 15:41 41.40938 -113.12689 31793 ft 455 kts 266°
2026-05-04 15:41 41.40414 -113.21093 31793 ft 455 kts 265°
2026-05-04 15:42 41.39884 -113.29508 31791 ft 456 kts 266°
2026-05-04 15:42 41.39346 -113.37936 31795 ft 457 kts 266°
2026-05-04 15:43 41.38802 -113.46374 31790 ft 458 kts 265°
2026-05-04 15:43 41.38250 -113.54824 31798 ft 458 kts 265°
2026-05-04 15:44 41.37693 -113.63275 31803 ft 459 kts 265°
2026-05-04 15:44 41.37128 -113.71745 31802 ft 459 kts 265°
2026-05-04 15:45 41.36557 -113.80222 31803 ft 460 kts 265°
2026-05-04 15:45 41.35352 -113.88571 31812 ft 461 kts 252°
2026-05-04 15:46 41.33337 -113.96674 31803 ft 461 kts 252°
2026-05-04 15:46 41.31296 -114.04775 31802 ft 462 kts 252°
2026-05-04 15:47 41.29298 -114.12845 31802 ft 463 kts 252°
2026-05-04 15:47 41.27302 -114.20981 31809 ft 463 kts 252°
2026-05-04 15:48 41.25305 -114.29125 31804 ft 464 kts 252°
2026-05-04 15:48 41.22293 -114.41349 31814 ft 465 kts 252°
2026-05-04 15:49 41.20272 -114.49507 31811 ft 465 kts 252°
2026-05-04 15:49 41.18244 -114.57663 31829 ft 465 kts 252°
2026-05-04 15:50 41.16209 -114.65823 31827 ft 466 kts 252°
2026-05-04 15:50 41.14167 -114.73980 31829 ft 466 kts 252°
2026-05-04 15:51 41.12120 -114.82130 31830 ft 466 kts 252°
2026-05-04 15:51 41.10068 -114.90271 31833 ft 465 kts 251°
2026-05-04 15:52 41.08014 -114.98392 31827 ft 465 kts 251°
2026-05-04 15:52 41.05953 -115.06515 31826 ft 465 kts 251°
2026-05-04 15:53 41.03897 -115.14589 31842 ft 466 kts 251°
2026-05-04 15:53 41.01819 -115.22722 31843 ft 466 kts 251°
2026-05-04 15:54 40.99734 -115.30858 31846 ft 467 kts 251°
2026-05-04 15:54 40.97640 -115.38999 31850 ft 468 kts 251°
2026-05-04 15:55 40.95536 -115.47149 31885 ft 468 kts 251°
2026-05-04 15:55 40.93423 -115.55308 31909 ft 469 kts 251°
2026-05-04 15:56 40.91302 -115.63475 31937 ft 470 kts 251°
2026-05-04 15:56 40.89170 -115.71653 31951 ft 471 kts 251°
2026-05-04 15:57 40.87032 -115.79828 31957 ft 471 kts 251°
2026-05-04 15:57 40.84886 -115.88004 31958 ft 472 kts 251°
2026-05-04 15:58 40.82731 -115.96186 31939 ft 472 kts 251°
2026-05-04 15:58 40.80571 -116.04364 31913 ft 472 kts 251°
2026-05-04 15:59 40.78405 -116.12535 31889 ft 472 kts 250°
2026-05-04 15:59 40.76233 -116.20700 31849 ft 472 kts 250°
2026-05-04 16:00 40.74055 -116.28863 31840 ft 472 kts 250°
2026-05-04 16:00 40.71869 -116.37029 31842 ft 472 kts 250°
2026-05-04 16:01 40.69680 -116.45182 31848 ft 473 kts 250°
2026-05-04 16:01 40.67480 -116.53345 31868 ft 473 kts 250°
2026-05-04 16:02 40.65273 -116.61509 31895 ft 474 kts 250°
2026-05-04 16:03 40.61960 -116.73718 31929 ft 475 kts 250°
2026-05-04 16:03 40.59734 -116.81888 31935 ft 475 kts 250°
2026-05-04 16:04 40.57499 -116.90065 31938 ft 475 kts 250°
2026-05-04 16:04 40.54414 -117.02480 31925 ft 476 kts 253°
2026-05-04 16:05 40.52539 -117.10839 31897 ft 477 kts 253°
2026-05-04 16:06 40.49662 -117.23368 31826 ft 478 kts 253°
2026-05-04 16:07 40.45734 -117.40083 31831 ft 479 kts 253°
2026-05-04 16:08 40.41771 -117.56811 31834 ft 480 kts 253°
2026-05-04 16:09 40.36788 -117.77690 31845 ft 480 kts 252°
2026-05-04 16:10 40.32775 -117.94369 31843 ft 479 kts 252°
2026-05-04 16:11 40.28757 -118.10951 31849 ft 479 kts 252°
2026-05-04 16:12 40.22656 -118.35907 31848 ft 480 kts 252°
2026-05-04 16:13 40.18547 -118.52565 31847 ft 482 kts 252°
2026-05-04 16:14 40.14405 -118.69245 31840 ft 483 kts 252°
2026-05-04 16:16 40.09171 -118.90151 31838 ft 485 kts 252°
2026-05-04 16:17 40.03899 -119.11033 31834 ft 486 kts 251°
2026-05-04 16:18 39.99643 -119.27759 31842 ft 485 kts 251°
2026-05-04 16:19 39.93054 -119.47744 31872 ft 480 kts 233°
2026-05-04 16:20 39.84136 -119.64415 31920 ft 482 kts 234°
2026-05-04 16:21 39.78474 -119.75187 31386 ft 477 kts 234°
2026-05-04 16:22 39.74760 -119.82237 30388 ft 469 kts 234°
2026-05-04 16:22 39.69289 -119.92582 28697 ft 456 kts 233°
2026-05-04 16:23 39.63949 -120.02642 27003 ft 447 kts 233°
2026-05-04 16:24 39.57008 -120.15675 24977 ft 434 kts 233°
2026-05-04 16:25 39.53586 -120.22081 23973 ft 431 kts 233°
2026-05-04 16:26 39.46791 -120.34630 21906 ft 417 kts 226°
2026-05-04 16:26 39.39891 -120.40939 20521 ft 402 kts 211°
2026-05-04 16:27 39.35262 -120.44923 19614 ft 398 kts 211°
2026-05-04 16:28 39.28414 -120.50865 18215 ft 393 kts 211°
2026-05-04 16:28 39.21655 -120.56721 16757 ft 386 kts 211°
2026-05-04 16:29 39.12868 -120.64311 14969 ft 374 kts 211°
2026-05-04 16:30 39.07028 -120.70639 13615 ft 370 kts 242°
2026-05-04 16:31 39.05303 -120.76823 12722 ft 365 kts 252°
2026-05-04 16:31 39.02993 -120.86007 11421 ft 355 kts 251°
2026-05-04 16:32 39.00707 -120.94817 10352 ft 328 kts 251°
2026-05-04 16:33 38.99313 -121.00149 9709 ft 307 kts 252°
2026-05-04 16:33 38.98012 -121.05104 9187 ft 285 kts 252°
2026-05-04 16:34 38.96765 -121.09845 8393 ft 277 kts 252°
2026-05-04 16:34 38.96149 -121.12180 8040 ft 275 kts 252°
2026-05-04 16:35 38.94329 -121.19068 7244 ft 267 kts 252°
2026-05-04 16:35 38.92571 -121.25710 6260 ft 256 kts 252°
2026-05-04 16:36 38.91987 -121.27849 5992 ft 254 kts 251°
2026-05-04 16:36 38.90792 -121.32121 5619 ft 254 kts 251°
2026-05-04 16:37 38.89617 -121.36321 5009 ft 246 kts 251°
2026-05-04 16:37 38.89038 -121.38391 4404 ft 247 kts 251°
2026-05-04 16:37 38.87881 -121.42530 3255 ft 244 kts 250°
2026-05-04 16:38 38.86768 -121.46509 2567 ft 228 kts 249°
2026-05-04 16:39 38.85294 -121.51778 2017 ft 187 kts 248°
2026-05-04 16:39 38.84438 -121.54822 1997 ft 178 kts 249°
2026-05-04 16:40 38.83205 -121.57490 2009 ft 181 kts 205°
2026-05-04 16:40 38.80690 -121.57822 1991 ft 186 kts 182°
2026-05-04 16:41 38.78166 -121.57880 1517 ft 169 kts 182°
2026-05-04 16:41 38.74862 -121.57936 883 ft 155 kts 180°
2026-05-04 16:42 38.71728 -121.57994 251 ft 149 kts 179°
2026-05-04 16:43 38.69764 -121.58023 28 ft 109 kts 180°
2026-05-04 16:43 38.69157 -121.58120 28 ft 27 kts 210°
2026-05-04 16:43 38.69038 -121.58213 28 ft 13 kts 227°
2026-05-04 16:44 38.69561 -121.58290 28 ft 17 kts 359°
2026-05-04 16:45 38.69616 -121.58534 28 ft 15 kts 269°
2026-05-04 16:46 38.69585 -121.58636 28 ft 11 kts 269°
2026-05-04 16:46 38.69547 -121.58746 28 ft 8 kts 180°
2026-05-04 16:47 38.69499 -121.58747 28 ft 0 kts 181°
2026-05-04 17:03 38.69500 -121.58747 28 ft 0 kts 181°
2026-05-04 17:29 38.69501 -121.58747 28 ft 0 kts 181°